Location: Asheville, NC
(35.6000°N, 82.5500°W)
Time: 14:10:22
(UTC-05:00)

DOVE 4 - Visible Passes

Search period start: 19 January 2018 00:00
Search period end: 29 January 2018 00:00
Orbit: 588 x 804 km, 97.7° (Epoch: 19 January)

Date Brightness Start Highest point End Pass type
(mag) Time Alt. Az. Time Alt. Az. Time Alt. Az.
19 Jan?05:47:32SSW05:47:32SSW05:36:33Nvisible
20 Jan?04:50:07SSE04:50:07SSE04:39:22NNEvisible
21 Jan?05:31:28SSW05:31:28SSW05:20:59NNEvisible
22 Jan?04:34:03SSE04:34:03SSE04:23:50NEvisible
22 Jan ? 06:02:29 10° N 06:12:48 - SW 06:02:37 11° NNW visible
23 Jan ? 05:05:17 10° NNE 05:15:23 - S 05:05:30 11° NNE visible
24 Jan?04:17:57SSE04:17:57SSE04:08:24NEvisible
24 Jan ? 05:46:15 10° N 05:56:42 - SSW 05:47:11 16° N visible
25 Jan ? 04:49:30 10° NNE 04:59:17 - S 04:50:06 13° NNE visible
25 Jan ? 06:28:15 10° NNW 06:28:53 12° NW 06:28:53 12° NW visible
26 Jan ? 05:30:08 10° N 05:40:35 - SSW 05:31:49 23° N visible
27 Jan ? 04:33:53 10° NE 04:43:09 - SSE 04:34:47 15° NE visible
27 Jan ? 06:11:40 10° NNW 06:13:34 20° NW 06:13:34 20° NW visible
28 Jan ? 05:14:09 10° NNE 05:24:26 - S 05:16:33 31° NNE visible
